Time,TemperatureF,DewpointF,PressureIn,WindDirection,WindDirectionDegrees,WindSpeedMPH,WindSpeedGustMPH,Humidity,HourlyPrecipIn,Conditions,Clouds,dailyrainin,SoftwareType,DateUTC
2013-05-23 00:08:00,63.5,61.0,29.84,East,101,0.0,0.0,92,0.00,,,0.00,weatherlink.com 1.10,2013-05-23 04:08:00,
2013-05-23 01:22:00,63.4,62.0,29.84,ESE,102,0.0,0.0,94,0.00,,,0.00,weatherlink.com 1.10,2013-05-23 05:22:00,
2013-05-23 01:37:00,63.3,62.0,29.83,ESE,102,0.0,0.0,94,0.00,,,0.00,weatherlink.com 1.10,2013-05-23 05:37:00,
2013-05-23 01:52:00,63.1,62.0,29.83,East,101,0.0,0.0,95,0.00,,,0.00,weatherlink.com 1.10,2013-05-23 05:52:00,
2013-05-23 02:07:00,62.8,61.0,29.83,ESE,102,0.0,0.0,95,0.00,,,0.00,weatherlink.com 1.10,2013-05-23 06:07:00,
2013-05-23 02:23:00,62.5,61.0,29.82,ESE,102,0.0,0.0,96,0.00,,,0.00,weatherlink.com 1.10,2013-05-23 06:23:00,
2013-05-23 02:38:00,62.0,61.0,29.82,East,101,0.0,0.0,96,0.00,,,0.00,weatherlink.com 1.10,2013-05-23 06:38:00,
2013-05-23 02:53:00,62.4,62.0,29.83,ESE,102,0.0,0.0,97,0.00,,,0.00,weatherlink.com 1.10,2013-05-23 06:53:00,
2013-05-23 03:08:00,62.6,62.0,29.83,ESE,102,0.0,0.0,97,0.00,,,0.00,weatherlink.com 1.10,2013-05-23 07:08:00,
2013-05-23 03:34:00,62.5,61.0,29.83,East,101,0.0,0.0,96,0.00,,,0.00,weatherlink.com 1.10,2013-05-23 07:34:00,
2013-05-23 03:53:00,62.4,62.0,29.83,East,101,0.0,0.0,97,0.00,,,0.00,weatherlink.com 1.10,2013-05-23 07:53:00,
2013-05-23 04:08:00,62.2,61.0,29.84,East,101,0.0,0.0,97,0.00,,,0.00,weatherlink.com 1.10,2013-05-23 08:08:00,
2013-05-23 04:23:00,62.3,62.0,29.84,East,101,0.0,0.0,97,0.00,,,0.00,weatherlink.com 1.10,2013-05-23 08:23:00,
2013-05-23 04:38:00,62.4,62.0,29.84,ESE,102,0.0,0.0,97,0.00,,,0.00,weatherlink.com 1.10,2013-05-23 08:38:00,
2013-05-23 04:53:00,62.1,61.0,29.84,East,101,0.0,0.0,97,0.00,,,0.00,weatherlink.com 1.10,2013-05-23 08:53:00,
2013-05-23 05:08:00,62.0,61.0,29.85,East,101,0.0,0.0,97,0.00,,,0.00,weatherlink.com 1.10,2013-05-23 09:08:00,
2013-05-23 05:23:00,61.9,61.0,29.85,East,101,0.0,0.0,97,0.00,,,0.00,weatherlink.com 1.10,2013-05-23 09:23:00,
2013-05-23 05:38:00,61.7,61.0,29.85,ESE,102,0.0,0.0,97,0.00,,,0.00,weatherlink.com 1.10,2013-05-23 09:38:00,
2013-05-23 05:53:00,61.4,61.0,29.85,East,101,0.0,0.0,97,0.00,,,0.00,weatherlink.com 1.10,2013-05-23 09:53:00,
2013-05-23 06:08:00,61.3,61.0,29.85,East,101,0.0,0.0,97,0.00,,,0.00,weatherlink.com 1.10,2013-05-23 10:08:00,
2013-05-23 06:23:00,61.4,61.0,29.85,East,101,0.0,0.0,98,0.00,,,0.00,weatherlink.com 1.10,2013-05-23 10:23:00,
2013-05-23 06:38:00,61.4,61.0,29.86,East,101,0.0,0.0,98,0.00,,,0.00,weatherlink.com 1.10,2013-05-23 10:38:00,
2013-05-23 06:53:00,61.5,61.0,29.86,East,101,0.0,0.0,98,0.00,,,0.00,weatherlink.com 1.10,2013-05-23 10:53:00,
2013-05-23 07:08:00,61.6,61.0,29.87,East,101,0.0,0.0,98,0.00,,,0.00,weatherlink.com 1.10,2013-05-23 11:08:00,
2013-05-23 07:23:00,61.9,61.0,29.87,East,101,0.0,0.0,98,0.00,,,0.00,weatherlink.com 1.10,2013-05-23 11:23:00,
2013-05-23 07:38:00,62.3,62.0,29.87,ESE,104,0.0,0.0,98,0.00,,,0.00,weatherlink.com 1.10,2013-05-23 11:38:00,
2013-05-23 07:53:00,62.6,62.0,29.88,ESE,104,0.0,1.0,98,0.00,,,0.00,weatherlink.com 1.10,2013-05-23 11:53:00,
2013-05-23 08:08:00,62.9,62.0,29.88,ESE,121,0.0,1.0,98,0.00,,,0.00,weatherlink.com 1.10,2013-05-23 12:08:00,
2013-05-23 08:23:00,63.0,62.0,29.89,ESE,121,0.0,0.0,96,0.00,,,0.00,weatherlink.com 1.10,2013-05-23 12:23:00,
2013-05-23 08:38:00,63.5,62.0,29.89,ESE,105,0.0,0.0,96,0.00,,,0.00,weatherlink.com 1.10,2013-05-23 12:38:00,
2013-05-23 08:53:00,64.7,63.0,29.88,SE,132,0.0,2.0,93,0.00,,,0.00,weatherlink.com 1.10,2013-05-23 12:53:00,
2013-05-23 09:08:00,65.5,63.0,29.89,SSE,156,0.0,2.0,90,0.00,,,0.00,weatherlink.com 1.10,2013-05-23 13:08:00,
2013-05-23 09:23:00,65.9,62.0,29.89,ESE,118,0.0,1.0,88,0.00,,,0.00,weatherlink.com 1.10,2013-05-23 13:23:00,
2013-05-23 09:38:00,66.4,62.0,29.89,ESE,108,0.0,1.0,84,0.00,,,0.00,weatherlink.com 1.10,2013-05-23 13:38:00,
2013-05-23 09:53:00,67.3,61.0,29.88,East,96,2.0,2.0,80,0.00,,,0.00,weatherlink.com 1.10,2013-05-23 13:53:00,
2013-05-23 10:08:00,68.8,61.0,29.89,East,87,0.0,2.0,77,0.00,,,0.00,weatherlink.com 1.10,2013-05-23 14:08:00,
2013-05-23 10:23:00,70.0,61.0,29.89,ESE,115,0.0,2.0,74,0.00,,,0.00,weatherlink.com 1.10,2013-05-23 14:23:00,
2013-05-23 10:39:00,70.6,61.0,29.88,East,81,2.0,3.0,72,0.00,,,0.00,weatherlink.com 1.10,2013-05-23 14:39:00,
2013-05-23 10:54:00,71.8,60.0,29.88,East,85,2.0,5.0,67,0.00,,,0.00,weatherlink.com 1.10,2013-05-23 14:54:00,
2013-05-23 11:09:00,73.1,61.0,29.88,ESE,103,1.0,4.0,66,0.00,,,0.00,weatherlink.com 1.10,2013-05-23 15:09:00,
2013-05-23 11:24:00,73.1,60.0,29.88,East,84,0.0,5.0,63,0.00,,,0.00,weatherlink.com 1.10,2013-05-23 15:24:00,
2013-05-23 11:39:00,74.0,61.0,29.88,SE,136,0.0,4.0,63,0.00,,,0.00,weatherlink.com 1.10,2013-05-23 15:39:00,
2013-05-23 11:54:00,74.1,59.0,29.88,ESE,120,1.0,4.0,59,0.00,,,0.00,weatherlink.com 1.10,2013-05-23 15:54:00,
2013-05-23 12:24:00,75.4,59.0,29.88,NW,304,1.0,4.0,58,0.00,,,0.00,weatherlink.com 1.10,2013-05-23 16:24:00,
2013-05-23 12:39:00,76.2,60.0,29.87,SE,146,2.0,2.0,57,0.00,,,0.00,weatherlink.com 1.10,2013-05-23 16:39:00,
2013-05-23 12:54:00,77.6,60.0,29.87,East,94,1.0,4.0,55,0.00,,,0.00,weatherlink.com 1.10,2013-05-23 16:54:00,
2013-05-23 13:09:00,77.5,60.0,29.86,SSE,153,2.0,4.0,55,0.00,,,0.00,weatherlink.com 1.10,2013-05-23 17:09:00,
2013-05-23 13:24:00,77.4,59.0,29.86,ESE,113,1.0,2.0,54,0.00,,,0.00,weatherlink.com 1.10,2013-05-23 17:24:00,
2013-05-23 13:39:00,76.1,60.0,29.86,East,88,1.0,2.0,57,0.00,,,0.00,weatherlink.com 1.10,2013-05-23 17:39:00,
2013-05-23 13:54:00,76.8,60.0,29.86,SE,129,1.0,5.0,56,0.00,,,0.00,weatherlink.com 1.10,2013-05-23 17:54:00,
2013-05-23 14:09:00,78.2,59.0,29.86,ESE,105,2.0,4.0,51,0.00,,,0.00,weatherlink.com 1.10,2013-05-23 18:09:00,
2013-05-23 14:24:00,78.5,60.0,29.86,ESE,108,1.0,5.0,54,0.00,,,0.00,weatherlink.com 1.10,2013-05-23 18:24:00,
2013-05-23 14:39:00,78.1,59.0,29.86,East,96,1.0,5.0,53,0.00,,,0.00,weatherlink.com 1.10,2013-05-23 18:39:00,
2013-05-23 14:54:00,77.8,58.0,29.86,NNE,13,1.0,5.0,51,0.00,,,0.00,weatherlink.com 1.10,2013-05-23 18:54:00,
2013-05-23 15:09:00,77.3,57.0,29.86,ESE,123,1.0,5.0,50,0.00,,,0.00,weatherlink.com 1.10,2013-05-23 19:09:00,
2013-05-23 15:24:00,77.6,59.0,29.85,SE,125,1.0,5.0,53,0.00,,,0.00,weatherlink.com 1.10,2013-05-23 19:24:00,
2013-05-23 15:39:00,77.6,61.0,29.85,ESE,113,2.0,5.0,57,0.00,,,0.00,weatherlink.com 1.10,2013-05-23 19:39:00,
2013-05-23 15:54:00,78.6,59.0,29.84,ENE,65,1.0,6.0,51,0.00,,,0.00,weatherlink.com 1.10,2013-05-23 19:54:00,
2013-05-23 16:09:00,78.0,61.0,29.84,ESE,121,3.0,3.0,57,0.00,,,0.00,weatherlink.com 1.10,2013-05-23 20:09:00,
2013-05-23 16:24:00,76.0,59.0,29.84,East,91,0.0,6.0,55,0.00,,,0.00,weatherlink.com 1.10,2013-05-23 20:24:00,
2013-05-23 16:39:00,74.7,60.0,29.83,ESE,106,2.0,6.0,61,0.00,,,0.00,weatherlink.com 1.10,2013-05-23 20:39:00,
2013-05-23 16:54:00,76.9,59.0,29.83,NE,50,0.0,6.0,55,0.00,,,0.00,weatherlink.com 1.10,2013-05-23 20:54:00,
2013-05-23 17:09:00,72.0,57.0,29.84,ESE,117,2.0,9.0,59,0.00,,,0.00,weatherlink.com 1.10,2013-05-23 21:09:00,
2013-05-23 17:24:00,71.4,59.0,29.84,NNE,16,0.0,3.0,64,0.00,,,0.00,weatherlink.com 1.10,2013-05-23 21:24:00,
2013-05-23 17:39:00,72.0,59.0,29.84,ESE,111,1.0,3.0,64,0.00,,,0.00,weatherlink.com 1.10,2013-05-23 21:39:00,
2013-05-23 17:54:00,71.5,59.0,29.84,ESE,103,0.0,0.0,66,0.00,,,0.00,weatherlink.com 1.10,2013-05-23 21:54:00,
2013-05-23 18:09:00,70.9,60.0,29.85,East,93,0.0,1.0,69,0.00,,,0.00,weatherlink.com 1.10,2013-05-23 22:09:00,
2013-05-23 18:24:00,70.7,60.0,29.84,ESE,111,0.0,1.0,70,0.00,,,0.00,weatherlink.com 1.10,2013-05-23 22:24:00,
2013-05-23 18:39:00,70.3,61.0,29.84,SE,133,0.0,2.0,72,0.00,,,0.00,weatherlink.com 1.10,2013-05-23 22:39:00,
2013-05-23 18:54:00,69.4,60.0,29.84,ESE,112,0.0,2.0,72,0.00,,,0.00,weatherlink.com 1.10,2013-05-23 22:54:00,
2013-05-23 19:09:00,68.8,60.0,29.84,East,91,1.0,3.0,74,0.00,,,0.00,weatherlink.com 1.10,2013-05-23 23:09:00,
2013-05-23 19:24:00,68.1,58.0,29.84,ENE,68,0.0,2.0,69,0.00,,,0.00,weatherlink.com 1.10,2013-05-23 23:24:00,
2013-05-23 19:39:00,68.1,56.0,29.85,ESE,105,0.0,8.0,66,0.00,,,0.00,weatherlink.com 1.10,2013-05-23 23:39:00,
2013-05-23 19:54:00,67.6,57.0,29.86,ENE,67,1.0,6.0,68,0.00,,,0.00,weatherlink.com 1.10,2013-05-23 23:54:00,
2013-05-23 20:09:00,66.9,56.0,29.87,East,86,1.0,7.0,68,0.00,,,0.00,weatherlink.com 1.10,2013-05-24 00:09:00,
2013-05-23 20:24:00,66.4,56.0,29.88,ESE,108,1.0,8.0,69,0.00,,,0.00,weatherlink.com 1.10,2013-05-24 00:24:00,
2013-05-23 20:39:00,65.7,56.0,29.88,NNE,13,1.0,5.0,70,0.00,,,0.00,weatherlink.com 1.10,2013-05-24 00:39:00,
2013-05-23 20:54:00,65.1,55.0,29.88,East,85,1.0,6.0,70,0.00,,,0.00,weatherlink.com 1.10,2013-05-24 00:54:00,
2013-05-23 21:09:00,64.9,55.0,29.88,ENE,59,1.0,6.0,70,0.00,,,0.00,weatherlink.com 1.10,2013-05-24 01:09:00,
2013-05-23 21:24:00,64.6,54.0,29.88,WNW,302,1.0,6.0,69,0.00,,,0.00,weatherlink.com 1.10,2013-05-24 01:24:00,
2013-05-23 21:39:00,64.3,54.0,29.89,East,94,1.0,3.0,70,0.00,,,0.00,weatherlink.com 1.10,2013-05-24 01:39:00,
2013-05-23 21:54:00,63.9,54.0,29.89,East,82,2.0,3.0,71,0.00,,,0.00,weatherlink.com 1.10,2013-05-24 01:54:00,
2013-05-23 22:09:00,63.6,54.0,29.89,WNW,301,1.0,3.0,71,0.00,,,0.00,weatherlink.com 1.10,2013-05-24 02:09:00,
2013-05-23 22:24:00,63.4,54.0,29.90,ESE,114,2.0,6.0,72,0.00,,,0.00,weatherlink.com 1.10,2013-05-24 02:24:00,
2013-05-23 22:39:00,63.3,54.0,29.90,East,88,0.0,2.0,72,0.00,,,0.00,weatherlink.com 1.10,2013-05-24 02:39:00,
2013-05-23 22:54:00,63.1,55.0,29.90,ESE,119,0.0,3.0,74,0.00,,,0.00,weatherlink.com 1.10,2013-05-24 02:54:00,
2013-05-23 23:09:00,62.5,55.0,29.90,East,101,0.0,4.0,76,0.00,,,0.00,weatherlink.com 1.10,2013-05-24 03:09:00,
2013-05-23 23:24:00,62.1,55.0,29.91,ESE,103,3.0,4.0,77,0.00,,,0.00,weatherlink.com 1.10,2013-05-24 03:24:00,
2013-05-23 23:39:00,61.6,54.0,29.91,NE,53,1.0,3.0,76,0.00,,,0.00,weatherlink.com 1.10,2013-05-24 03:39:00,
2013-05-23 23:55:00,60.9,54.0,29.91,ESE,122,0.0,3.0,78,0.00,,,0.00,weatherlink.com 1.10,2013-05-24 03:55:00,